Shoreham, United Kingdom

7:23 PM BST on May 26, 2017 (GMT +0100)
Shoreham

Weather History for EGKA - October, 2012

Change the Weather History Date:

Monday, October 8, 2012

  Actual Average Record
Temperature  
Mean Temperature 53 °F -  
Max Temperature 58 °F 55 °F 69 °F (2003)
Min Temperature 48 °F 47 °F 41 °F (2015)
Degree Days  
Heating Degree Days 12    
Growing Degree Days 3 (Base 50)    
Moisture  
Dew Point 55 °F    
Average Humidity 92    
Maximum Humidity 100    
Minimum Humidity 62    
Precipitation  
Precipitation 0.08 in - - ()
Sea Level Pressure  
Sea Level Pressure 29.91 in    
Wind  
Wind Speed 10 mph ()    
Max Wind Speed 15 mph    
Max Gust Speed -    
Visibility 2.6 miles    
Events      
Averages and records for this station are not official NWS values.
T = Trace of Precipitation, MM = Missing Value Source: Averaged Metar Reports

Daily Weather History Graph

Daily Weather History Graph

Search for Another Location

Airport or City:

Trip Planner

Search our weather history database for the weather conditions in past years. The results will help you decide how hot, cold, wet, or windy it might be!

Date:

Astronomy

Oct. 08, 2012 Rise Set
Actual Time 7:13 AM BST 6:23 PM BST
Civil Twilight 6:40 AM BST 6:55 PM BST
Nautical Twilight 6:02 AM BST 7:33 PM BST
Astronomical Twilight 5:23 AM BST 8:12 PM BST
Moon 11:57 PM BST (10/8) 2:43 PM BST (10/8)
Length of Visible Light 12h 15m
Length of Day
11h 09m
Waning Gibbous, 48% of the Moon is Illuminated
Oct 8
Waning Gibbous
Oct 15
New
Oct 22
First Quarter
Oct 29
Full
Nov 7
Last Quarter

Hourly Weather History & Observations

Time (BST) Temp. Dew Point Humidity Pressure Visibility Wind Dir Wind Speed Gust Speed Precip Events Conditions
12:50 AM 57 °F 48 °F 62% 30.14 in - SE 12.7 mph - -  
3:50 AM 57 °F 49 °F 68% 30.06 in - SE 15.0 mph - -  
6:50 AM 55 °F 51 °F 83% 29.99 in - SE 13.8 mph - -  
9:50 AM 55 °F 53 °F 92% 29.96 in - ESE 15.0 mph - -  
9:50 AM 55.4 °F 53.6 °F 94% 29.95 in 0.7 mi ESE 15.0 mph - N/A   Drizzle
10:20 AM 55.4 °F 53.6 °F 94% 29.95 in 1.9 mi ESE 13.8 mph - N/A   Light Drizzle
10:50 AM 55.4 °F 55.4 °F 100% 29.95 in 0.7 mi ESE 13.8 mph - N/A   Light Drizzle
11:20 AM 57.2 °F 55.4 °F 94% 29.92 in 0.7 mi ESE 12.7 mph - N/A   Light Drizzle
11:50 AM 57.2 °F 55.4 °F 94% 29.92 in 0.9 mi ESE 12.7 mph - N/A   Drizzle
12:20 PM 57.2 °F 55.4 °F 94% 29.92 in 2.2 mi ESE 10.4 mph - N/A   Light Drizzle
12:50 PM 57 °F 56 °F 95% 29.91 in - ESE 12.7 mph - -  
12:50 PM 57.2 °F 55.4 °F 94% 29.89 in 2.2 mi ESE 11.5 mph - N/A   Light Drizzle
1:20 PM 57.2 °F 57.2 °F 100% 29.89 in - ESE 10.4 mph - N/A   Mostly Cloudy
2:20 PM 57.2 °F 57.2 °F 100% 29.86 in 1.9 mi East 8.1 mph - N/A   Mostly Cloudy
3:20 PM 57.2 °F 57.2 °F 100% 29.86 in 1.7 mi East 5.8 mph - N/A   Mostly Cloudy
3:50 PM 58 °F 56 °F 93% 29.86 in - ENE 5.8 mph - -  
3:50 PM 57.2 °F 57.2 °F 100% 29.86 in 3.1 mi ENE 5.8 mph - N/A   Mostly Cloudy
4:20 PM 57.2 °F 57.2 °F 100% 29.83 in 3.1 mi NE 8.1 mph - N/A   Mostly Cloudy
4:50 PM 59.0 °F 57.2 °F 94% 29.83 in 6.2 mi ENE 8.1 mph - N/A   Scattered Clouds
5:20 PM 59.0 °F 55.4 °F 88% 29.83 in 6.2 mi ENE 6.9 mph - N/A   Scattered Clouds
5:50 PM 57.2 °F 55.4 °F 94% 29.83 in 6.2 mi NE 5.8 mph - N/A   Scattered Clouds
6:20 PM 57.2 °F 55.4 °F 94% 29.86 in 1.6 mi NNE 4.6 mph - N/A   Mostly Cloudy
6:50 PM 56 °F 55 °F 96% 29.86 in - North 6.9 mph - -  
9:50 PM 55 °F 53 °F 92% 29.89 in - North 5.8 mph - -